User: anonymous   Login
Location: Taipo
(41.0000°S, 175.9500°E)
Time: 13:27:59
(UTC+00:00)
Language:

SL-16 R/B - Orbit

View from above orbital plane
View from above orbital plane
View from above satellite
View from above satellite

Ground track
Ground track

The orbit data is extracted from the following two-line orbital elements,

1 27006U 01056F   24174.01256230 -.00000031  00000-0  17035-4 0  9999
2 27006  99.6864 321.2130 0014941 152.8324 314.6055 13.71032514127534
Epoch (UTC): 22 June 2024 00:18:05
Eccentricity: 0.0014941
inclination: 99.6864°
perigee height: 985 km
apogee height: 1007 km
right ascension of ascending node: 321.2130°
argument of perigee: 152.8324°
revolutions per day: 13.71032514
mean anomaly at epoch: 314.6055°
orbit number at epoch: 12753

The dashed part of the orbit path shows where the satellite is in the earth's shadow,  

DLR